CW8095 Weather Reports


time (UTC)temp
C
wind
direction
speed
KPH
gust
KPH
rain 1hr
cm
rain 24hr
cm
rain mn
cm
humidity
%
barometer
mb
20260904121529 21 139 4.8 11.3 0.00 0.00 0.00 79 1013.9
20260904120525 21 122 4.8 12.9 0.00 0.00 0.00 79 1013.8
20260904115521 21 156 3.2 6.4 0.00 0.00 0.00 79 1013.7
20260904114516 21 131 3.2 4.8 0.00 0.00 0.00 79 1013.7
20260904113546 21 132 4.8 9.7 0.00 0.00 0.00 79 1013.7
20260904112521 21 119 4.8 9.7 0.00 0.00 0.00 78 1013.7
20260904111517 21 126 3.2 11.3 0.00 0.00 0.00 78 1013.5
20260904110528 21 141 3.2 6.4 0.00 0.00 0.00 78 1013.6
20260904105524 21 114 3.2 4.8 0.00 0.00 0.00 78 1013.6
20260904104519 21 143 1.6 3.2 0.00 0.00 0.00 78 1013.5
20260904103535 21 138 1.6 3.2 0.00 0.00 0.00 78 1013.3
20260904102526 21 134 0.0 1.6 0.00 0.00 0.00 78 1013.2
20260904101522 21 134 0.0 3.2 0.00 0.00 0.00 78 1013.2
20260904100518 21 134 0.0 3.2 0.00 0.00 0.00 77 1013.2
20260904095529 22 138 4.8 9.7 0.00 0.00 0.00 77 1013.2
20260904094544 22 114 3.2 6.4 0.00 0.00 0.00 77 1013.2
20260904093520 22 134 3.2 11.3 0.00 0.00 0.00 77 1013.2
20260904092516 22 131 3.2 9.7 0.00 0.00 0.00 77 1013.1
20260904091527 22 145 1.6 9.7 0.00 0.00 0.00 77 1013.2
20260904090522 22 143 3.2 12.9 0.00 0.00 0.00 76 1013.1
20260904085518 22 152 3.2 11.3 0.00 0.00 0.00 76 1013.1
20260904084529 22 161 4.8 11.3 0.00 0.00 0.00 76 1013.2
20260904083525 22 169 8.0 11.3 0.00 0.00 0.00 76 1013.3
20260904082525 22 150 4.8 14.5 0.00 0.00 0.00 76 1013.0
20260904082028 22 150 4.8 16.1 0.00 0.00 0.00 76 1013.0
20260904081043 22 147 3.2 11.3 0.00 0.00 0.00 76 1013.0
20260904080019 22 135 3.2 11.3 0.00 0.00 0.00 76 1013.0
20260904075025 22 151 3.2 9.7 0.00 0.00 0.00 76 1013.0
20260904074046 22 162 4.8 9.7 0.00 0.00 0.00 75 1013.2
20260904073024 22 119 1.6 4.8 0.00 0.00 0.00 75 1013.2
20260904072020 22 130 1.6 6.4 0.00 0.00 0.00 75 1013.3
20260904071018 22 155 3.2 12.9 0.00 0.00 0.00 75 1013.5
20260904070030 22 135 3.2 11.3 0.00 0.00 0.00 75 1013.4
20260904065021 22 139 3.2 6.4 0.00 0.00 0.00 74 1013.5
20260904064043 22 134 3.2 4.8 0.00 0.00 0.00 74 1013.6
20260904063025 22 135 1.6 6.4 0.00 0.00 0.00 74 1013.4
20260904062037 22 142 3.2 9.7 0.00 0.00 0.00 74 1013.5
20260904061043 22 155 3.2 12.9 0.00 0.00 0.00 73 1013.4
20260904060057 22 157 3.2 14.5 0.00 0.00 0.00 73 1013.5
20260904055050 22 149 3.2 9.7 0.00 0.00 0.00 73 1013.5
20260904054023 22 151 4.8 11.3 0.00 0.00 0.00 72 1013.6
20260904053044 22 144 4.8 12.9 0.00 0.00 0.00 72 1013.5
20260904052112 22 147 4.8 14.5 0.00 0.00 0.00 71 1013.3
20260904051023 22 149 3.2 11.3 0.00 0.00 0.00 71 1013.2
20260904050029 22 141 4.8 12.9 0.00 0.00 0.00 70 1013.4
20260904045523 22 145 4.8 12.9 0.00 0.00 0.00 69 1013.6
20260904044550 22 151 4.8 16.1 0.00 0.00 0.00 69 1013.5
20260904043538 22 136 4.8 11.3 0.00 0.00 0.00 68 1013.5
20260904042516 23 127 6.4 11.3 0.00 0.00 0.00 67 1013.5
20260904041529 23 133 4.8 12.9 0.00 0.00 0.00 65 1013.6
20260904040523 23 122 4.8 12.9 0.00 0.00 0.00 63 1013.5
20260904035542 23 127 6.4 16.1 0.00 0.00 0.00 62 1013.6
20260904034537 23 129 6.4 14.5 0.00 0.00 0.00 61 1013.6
20260904033529 23 120 4.8 11.3 0.00 0.00 0.00 61 1013.5
20260904032528 23 129 6.4 14.5 0.00 0.00 0.00 62 1013.4
20260904031524 23 122 4.8 12.9 0.00 0.00 0.00 62 1013.4
20260904030516 23 128 4.8 11.3 0.00 0.00 0.00 62 1013.3
20260904025526 23 132 4.8 14.5 0.00 0.00 0.00 62 1013.2
20260904024521 24 130 3.2 9.7 0.00 0.00 0.00 62 1013.1
20260904023517 24 131 6.4 12.9 0.00 0.00 0.00 62 1012.9
20260904022526 24 119 6.4 11.3 0.00 0.00 0.00 62 1012.8
20260904021522 24 136 4.8 12.9 0.00 0.00 0.00 62 1012.7
20260904020517 25 136 6.4 12.9 0.00 0.00 0.00 62 1012.3
20260904015527 25 129 4.8 14.5 0.00 0.00 0.00 62 1012.2
20260904014523 25 136 6.4 14.5 0.00 0.00 0.00 63 1012.1
20260904013538 25 147 9.7 17.7 0.00 0.00 0.00 63 1012.0
20260904012548 25 144 8.0 14.5 0.00 0.00 0.00 62 1011.9
20260904011524 26 135 9.7 22.5 0.00 0.00 0.00 59 1011.9
20260904010519 26 135 6.4 14.5 0.00 0.00 0.00 55 1011.7
20260904005549 26 143 8.0 22.5 0.00 0.00 0.00 52 1011.8
20260904004524 27 128 8.0 17.7 0.00 0.00 0.00 50 1011.8
20260904003519 27 151 8.0 17.7 0.00 0.00 0.00 48 1011.6
20260904002529 27 132 4.8 12.9 0.00 0.00 0.00 49 1011.7
20260904001525 27 140 9.7 17.7 0.00 0.00 0.00 49 1011.5
20260904000540 27 140 8.0 16.1 0.00 0.00 0.00 50 1011.6
20260903235536 27 142 11.3 25.7 0.00 0.00 0.00 50 1011.5
20260903234526 28 123 8.0 20.9 0.00 0.00 0.00 49 1011.5
20260903233522 28 144 6.4 16.1 0.00 0.00 0.00 49 1011.4
20260903232517 28 134 9.7 16.1 0.00 0.00 0.00 48 1011.2
20260903231528 29 122 9.7 17.7 0.00 0.00 0.00 48 1011.3
20260903230524 29 138 8.0 17.7 0.00 0.00 0.00 48 1011.1
20260903225519 30 136 8.0 16.1 0.00 0.00 0.00 48 1011.1
20260903224530 30 150 6.4 14.5 0.00 0.00 0.00 48 1011.1
20260903223525 30 124 8.0 17.7 0.00 0.00 0.00 48 1011.3
20260903222520 30 136 8.0 14.5 0.00 0.00 0.00 47 1011.3
20260903221516 31 125 9.7 17.7 0.00 0.00 0.00 45 1011.3
20260903220527 31 134 9.7 20.9 0.00 0.00 0.00 45 1011.3
20260903215522 31 111 9.7 17.7 0.00 0.00 0.00 46 1011.2
20260903214517 32 148 6.4 12.9 0.00 0.00 0.00 44 1011.2
20260903213528 31 124 6.4 14.5 0.00 0.00 0.00 45 1011.2
20260903212523 31 144 8.0 14.5 0.00 0.00 0.00 46 1011.4
20260903211519 31 173 6.4 20.9 0.00 0.00 0.00 45 1011.4
20260903210529 31 170 6.4 16.1 0.00 0.00 0.00 46 1011.5
20260903205525 31 184 6.4 14.5 0.00 0.00 0.00 48 1011.8
20260903204521 30 170 6.4 24.1 0.00 0.00 0.00 49 1011.9
20260903203516 30 151 8.0 17.7 0.00 0.00 0.00 50 1012.0
20260903202527 30 149 6.4 16.1 0.00 0.00 0.00 50 1012.0
20260903201522 29 165 8.0 22.5 0.00 0.00 0.00 51 1012.1
20260903200517 29 166 8.0 24.1 0.00 0.00 0.00 51 1012.1
20260903195528 28 163 9.7 22.5 0.00 0.00 0.00 53 1012.1
20260903194523 28 151 11.3 17.7 0.00 0.00 0.00 53 1012.2
20260903193518 28 172 6.4 24.1 0.00 0.00 0.00 54 1012.4
20260903192529 28 171 6.4 22.5 0.00 0.00 0.00 54 1012.5
20260903191524 28 152 9.7 20.9 0.00 0.00 0.00 55 1012.7
20260903190520 28 151 11.3 24.1 0.00 0.00 0.00 56 1012.9
20260903185515 27 168 6.4 17.7 0.00 0.00 0.00 57 1013.1
20260903184526 27 158 8.0 20.9 0.00 0.00 0.00 58 1013.3
20260903183521 27 146 8.0 20.9 0.00 0.00 0.00 59 1013.5
20260903182517 27 127 9.7 20.9 0.00 0.00 0.00 59 1013.6
20260903181527 26 154 11.3 22.5 0.00 0.00 0.00 61 1013.6
20260903180522 26 161 11.3 27.4 0.00 0.00 0.00 61 1013.6
20260903175520 26 147 9.7 25.7 0.00 0.00 0.00 62 1013.7
20260903174528 26 149 8.0 22.5 0.00 0.00 0.00 62 1013.9
20260903173544 26 144 9.7 27.4 0.00 0.00 0.00 62 1014.0
20260903172519 26 157 9.7 25.7 0.00 0.00 0.00 61 1014.1
20260903171550 27 166 11.3 33.8 0.00 0.00 0.00 60 1014.0
20260903170525 27 159 9.7 22.5 0.00 0.00 0.00 61 1014.1
20260903165521 27 157 9.7 27.4 0.00 0.00 0.00 60 1014.0
20260903164517 27 150 9.7 25.7 0.00 0.00 0.00 61 1014.1
20260903163528 27 165 8.0 24.1 0.00 0.00 0.00 61 1014.1
20260903162523 26 157 8.0 20.9 0.00 0.00 0.00 63 1014.0
20260903161518 26 135 8.0 20.9 0.00 0.00 0.00 64 1014.0
20260903160528 26 155 6.4 17.7 0.00 0.00 0.00 65 1014.1
20260903155524 25 149 8.0 17.7 0.00 0.00 0.00 66 1014.1
20260903154520 25 160 6.4 14.5 0.00 0.00 0.00 67 1014.0
20260903153515 25 157 4.8 14.5 0.00 0.00 0.00 68 1014.0
20260903152526 24 167 4.8 20.9 0.00 0.00 0.00 69 1013.9
20260903151521 24 171 6.4 16.1 0.00 0.00 0.00 69 1013.8
20260903150516 24 166 4.8 14.5 0.00 0.00 0.00 69 1014.0
20260903145607 24 142 6.4 17.7 0.00 0.00 0.00 68 1014.1
20260903144522 24 157 4.8 17.7 0.00 0.00 0.00 68 1014.0
20260903143517 24 144 4.8 14.5 0.00 0.00 0.00 69 1013.9
20260903142528 24 137 3.2 11.3 0.00 0.00 0.00 69 1013.9
20260903141523 23 126 4.8 9.7 0.00 0.00 0.00 69 1013.7
20260903140519 24 122 8.0 16.1 0.00 0.00 0.00 69 1013.9
20260903135529 24 128 6.4 16.1 0.00 0.00 0.00 68 1014.0
20260903134525 23 118 6.4 11.3 0.00 0.00 0.00 69 1013.9
20260903133521 22 132 6.4 12.9 0.00 0.00 0.00 72 1013.7
20260903132516 22 126 4.8 9.7 0.00 0.00 0.00 73 1013.7
20260903131526 22 142 4.8 9.7 0.00 0.00 0.00 74 1013.6
20260903130542 21 121 4.8 9.7 0.00 0.00 0.00 74 1013.8
20260903125517 21 109 3.2 6.4 0.00 0.00 0.00 75 1013.7
20260903124528 21 112 4.8 9.7 0.00 0.00 0.00 75 1013.7
20260903123523 21 129 3.2 6.4 0.00 0.00 0.00 75 1013.4
20260903122519 21 144 4.8 12.9 0.00 0.00 0.00 75 1013.5